| time (UTC) | temp F | wind direction | speed MPH | gust MPH | rain 1hr in | rain 24hr in | rain mn in | humidity % | barometer mb |
| 20260506073407 | 49 | 282 | 1.0 | 6.0 | 0.00 | 0.00 | 0.00 | 43 | 1012.5 |
| 20260506072903 | 49 | 100 | 2.0 | 5.0 | 0.00 | 0.00 | 0.00 | 45 | 1012.5 |
| 20260506072407 | 49 | 319 | 2.0 | 7.0 | 0.00 | 0.00 | 0.00 | 44 | 1012.5 |
| 20260506071909 | 49 | 4 | 3.0 | 7.0 | 0.00 | 0.00 | 0.00 | 43 | 1012.5 |
| 20260506071404 | 49 | 264 | 2.0 | 4.0 | 0.00 | 0.00 | 0.00 | 47 | 1012.4 |
| 20260506070903 | 49 | 196 | 2.0 | 4.0 | 0.00 | 0.00 | 0.00 | 47 | 1012.4 |
| 20260506070404 | 48 | 324 | 1.0 | 5.0 | 0.00 | 0.00 | 0.00 | 48 | 1012.3 |
| 20260506062404 | 46 | 350 | 3.0 | 6.0 | 0.00 | 0.00 | 0.00 | 53 | 1012.2 |
| 20260506061905 | 46 | 307 | 4.0 | 6.0 | 0.00 | 0.00 | 0.00 | 56 | 1012.2 |
| 20260506061405 | 46 | 0 | 2.0 | 5.0 | 0.00 | 0.00 | 0.00 | 56 | 1012.2 |
| 20260506060902 | 45 | 357 | 1.0 | 4.0 | 0.00 | 0.00 | 0.00 | 60 | 1012.0 |
| 20260506060403 | 45 | 275 | 1.0 | 4.0 | 0.00 | 0.00 | 0.00 | 61 | 1012.0 |
| 20260506051407 | 41 | 285 | 2.0 | 3.0 | 0.00 | 0.00 | 0.00 | 71 | 1011.6 |
| 20260506050906 | 41 | 293 | 2.0 | 3.0 | 0.00 | 0.00 | 0.00 | 72 | 1011.5 |
| 20260506050405 | 40 | 302 | 1.0 | 3.0 | 0.00 | 0.00 | 0.00 | 72 | 1011.5 |
| 20260506044907 | 39 | 316 | 2.0 | 5.0 | 0.00 | 0.00 | 0.00 | 76 | 1011.3 |
| 20260506044408 | 38 | 252 | 1.0 | 3.0 | 0.00 | 0.00 | 0.00 | 78 | 1011.2 |
| 20260506043902 | 38 | 45 | 1.0 | 3.0 | 0.00 | 0.00 | 0.00 | 81 | 1011.2 |
| 20260506042907 | 37 | 285 | 0.0 | 2.0 | 0.00 | 0.00 | 0.00 | 82 | 1011.0 |
| 20260506042407 | 36 | 345 | 0.0 | 3.0 | 0.00 | 0.00 | 0.00 | 85 | 1011.1 |
| 20260506041906 | 35 | 303 | 0.0 | 3.0 | 0.00 | 0.00 | 0.00 | 85 | 1011.0 |
| 20260506041404 | 35 | 353 | 0.0 | 3.0 | 0.00 | 0.00 | 0.00 | 87 | 1011.0 |
| 20260506040902 | 34 | 355 | 1.0 | 3.0 | 0.00 | 0.00 | 0.00 | 87 | 1011.0 |
| 20260506040404 | 33 | 1 | 1.0 | 2.0 | 0.00 | 0.00 | 0.00 | 88 | 1011.0 |
| 20260506035906 | 33 | 252 | 0.0 | 1.0 | 0.00 | 0.00 | 0.00 | 88 | 1010.9 |
| 20260506034906 | 32 | 252 | 0.0 | 0.0 | 0.00 | 0.00 | 0.00 | 88 | 1010.8 |
| 20260506034405 | 32 | 252 | 0.0 | 0.0 | 0.00 | 0.00 | 0.00 | 88 | 1010.8 |
| 20260506033905 | 32 | 252 | 0.0 | 0.0 | 0.00 | 0.00 | 0.00 | 88 | 1010.7 |
| 20260506033403 | 31 | 252 | 0.0 | 0.0 | 0.00 | 0.00 | 0.00 | 88 | 1010.7 |
| 20260506032903 | 31 | 252 | 0.0 | 0.0 | 0.00 | 0.00 | 0.00 | 88 | 1010.6 |
| 20260506031906 | 31 | 252 | 0.0 | 0.0 | 0.00 | 0.00 | 0.00 | 88 | 1010.5 |
| 20260506030904 | 31 | 252 | 0.0 | 0.0 | 0.00 | 0.00 | 0.00 | 88 | 1010.4 |
| 20260506030402 | 30 | 252 | 0.0 | 0.0 | 0.00 | 0.00 | 0.00 | 88 | 1010.4 |
| 20260506025408 | 30 | 252 | 0.0 | 0.0 | 0.00 | 0.00 | 0.00 | 87 | 1010.3 |
| 20260506024908 | 30 | 252 | 0.0 | 0.0 | 0.00 | 0.00 | 0.00 | 87 | 1010.2 |
| 20260506024402 | 30 | 252 | 0.0 | 0.0 | 0.00 | 0.00 | 0.00 | 87 | 1010.1 |
| 20260506023905 | 30 | 252 | 0.0 | 0.0 | 0.00 | 0.00 | 0.00 | 87 | 1010.1 |
| 20260506023406 | 30 | 252 | 0.0 | 0.0 | 0.00 | 0.00 | 0.00 | 87 | 1010.0 |
| 20260506022903 | 30 | 252 | 0.0 | 0.0 | 0.00 | 0.00 | 0.00 | 87 | 1010.0 |
| 20260506022405 | 30 | 252 | 0.0 | 0.0 | 0.00 | 0.00 | 0.00 | 87 | 1009.9 |
| 20260506021403 | 30 | 252 | 0.0 | 0.0 | 0.00 | 0.00 | 0.00 | 86 | 1009.8 |
| 20260506020905 | 30 | 252 | 0.0 | 0.0 | 0.00 | 0.00 | 0.00 | 86 | 1009.8 |
| 20260506020402 | 30 | 252 | 0.0 | 0.0 | 0.00 | 0.00 | 0.00 | 85 | 1009.9 |
| 20260506015904 | 30 | 252 | 0.0 | 0.0 | 0.00 | 0.00 | 0.00 | 85 | 1009.7 |
| 20260506015402 | 30 | 252 | 0.0 | 0.0 | 0.00 | 0.00 | 0.00 | 85 | 1009.7 |
| 20260506014902 | 30 | 252 | 0.0 | 0.0 | 0.00 | 0.00 | 0.00 | 85 | 1009.7 |
| 20260506014402 | 30 | 252 | 0.0 | 0.0 | 0.00 | 0.00 | 0.00 | 85 | 1009.7 |
| 20260506013905 | 30 | 252 | 0.0 | 0.0 | 0.00 | 0.00 | 0.00 | 86 | 1009.6 |
| 20260506013406 | 30 | 252 | 0.0 | 0.0 | 0.00 | 0.00 | 0.00 | 85 | 1009.6 |
| 20260506012902 | 31 | 252 | 0.0 | 0.0 | 0.00 | 0.00 | 0.00 | 85 | 1009.6 |
| 20260506012402 | 31 | 252 | 0.0 | 0.0 | 0.00 | 0.00 | 0.00 | 85 | 1009.5 |
| 20260506011902 | 31 | 252 | 0.0 | 0.0 | 0.00 | 0.00 | 0.00 | 84 | 1009.5 |
| 20260506011405 | 31 | 252 | 0.0 | 0.0 | 0.00 | 0.00 | 0.00 | 85 | 1009.5 |
| 20260506010905 | 31 | 252 | 0.0 | 0.0 | 0.00 | 0.00 | 0.00 | 84 | 1009.5 |
| 20260506010405 | 31 | 252 | 0.0 | 0.0 | 0.00 | 0.00 | 0.00 | 84 | 1009.4 |
| 20260506005906 | 31 | 252 | 0.0 | 0.0 | 0.00 | 0.00 | 0.00 | 84 | 1009.4 |
| 20260506005403 | 31 | 252 | 0.0 | 0.0 | 0.00 | 0.00 | 0.00 | 84 | 1009.3 |
| 20260506004902 | 31 | 252 | 0.0 | 0.0 | 0.00 | 0.00 | 0.00 | 84 | 1009.3 |
| 20260506003902 | 31 | 252 | 0.0 | 0.0 | 0.00 | 0.00 | 0.00 | 84 | 1009.2 |
| 20260506003402 | 31 | 252 | 0.0 | 0.0 | 0.00 | 0.00 | 0.00 | 84 | 1009.2 |
| 20260506002902 | 31 | 252 | 0.0 | 0.0 | 0.00 | 0.00 | 0.00 | 84 | 1009.1 |
| 20260506002405 | 32 | 252 | 0.0 | 0.0 | 0.00 | 0.00 | 0.00 | 84 | 1009.1 |
| 20260506001905 | 32 | 252 | 0.0 | 0.0 | 0.00 | 0.00 | 0.00 | 83 | 1009.1 |
| 20260506001402 | 32 | 252 | 0.0 | 0.0 | 0.00 | 0.00 | 0.00 | 83 | 1009.1 |
| 20260506000851 | 32 | 252 | 0.0 | 0.0 | 0.00 | 0.00 | 0.00 | 83 | 1009.1 |
| 20260506000333 | 32 | 252 | 0.0 | 0.0 | 0.00 | 0.00 | 0.00 | 83 | 1009.0 |
| 20260505235834 | 32 | 252 | 0.0 | 0.0 | 0.00 | 0.00 | 0.00 | 83 | 1008.9 |
| 20260505235332 | 32 | 252 | 0.0 | 0.0 | 0.00 | 0.00 | 0.00 | 83 | 1009.0 |
| 20260505234830 | 32 | 252 | 0.0 | 0.0 | 0.00 | 0.00 | 0.00 | 83 | 1008.9 |
| 20260505234329 | 32 | 252 | 0.0 | 0.0 | 0.00 | 0.00 | 0.00 | 83 | 1008.8 |
| 20260505233829 | 33 | 252 | 0.0 | 0.0 | 0.00 | 0.00 | 0.00 | 82 | 1008.9 |
| 20260505232832 | 33 | 252 | 0.0 | 1.0 | 0.00 | 0.00 | 0.00 | 83 | 1008.8 |
| 20260505232330 | 33 | 252 | 0.0 | 1.0 | 0.00 | 0.00 | 0.00 | 82 | 1008.9 |
| 20260505231832 | 33 | 252 | 0.0 | 1.0 | 0.00 | 0.00 | 0.00 | 82 | 1008.7 |
| 20260505231329 | 33 | 252 | 0.0 | 2.0 | 0.00 | 0.00 | 0.00 | 82 | 1008.7 |
| 20260505230830 | 33 | 262 | 0.0 | 2.0 | 0.00 | 0.00 | 0.00 | 82 | 1008.7 |
| 20260505230329 | 33 | 261 | 0.0 | 1.0 | 0.00 | 0.00 | 0.00 | 81 | 1008.7 |
| 20260505225829 | 33 | 261 | 0.0 | 0.0 | 0.00 | 0.00 | 0.00 | 81 | 1008.7 |
| 20260505225329 | 33 | 261 | 0.0 | 1.0 | 0.00 | 0.00 | 0.00 | 81 | 1008.6 |
| 20260505224833 | 33 | 261 | 0.0 | 1.0 | 0.00 | 0.00 | 0.00 | 81 | 1008.5 |
| 20260505224334 | 33 | 264 | 0.0 | 1.0 | 0.00 | 0.00 | 0.00 | 81 | 1008.6 |
| 20260505223829 | 34 | 264 | 0.0 | 1.0 | 0.00 | 0.00 | 0.00 | 80 | 1008.4 |
| 20260505223328 | 34 | 300 | 0.0 | 1.0 | 0.00 | 0.00 | 0.00 | 80 | 1008.5 |
| 20260505222832 | 34 | 300 | 0.0 | 1.0 | 0.00 | 0.00 | 0.00 | 80 | 1008.4 |
| 20260505222328 | 34 | 302 | 0.0 | 1.0 | 0.00 | 0.00 | 0.00 | 80 | 1008.5 |
| 20260505221829 | 34 | 302 | 0.0 | 1.0 | 0.00 | 0.00 | 0.00 | 80 | 1008.4 |
| 20260505215309 | 35 | 348 | 1.0 | 1.0 | 0.00 | 0.00 | 0.00 | 78 | 1008.2 |
| 20260505214808 | 35 | 348 | 0.0 | 1.0 | 0.00 | 0.00 | 0.00 | 77 | 1008.3 |
| 20260505214309 | 35 | 348 | 0.0 | 1.0 | 0.00 | 0.00 | 0.00 | 77 | 1008.2 |
| 20260505213805 | 35 | 348 | 0.0 | 0.0 | 0.00 | 0.00 | 0.00 | 77 | 1008.3 |
| 20260505213307 | 35 | 348 | 0.0 | 1.0 | 0.00 | 0.00 | 0.00 | 77 | 1008.3 |
| 20260505212810 | 35 | 348 | 0.0 | 1.0 | 0.00 | 0.00 | 0.00 | 76 | 1008.1 |
| 20260505212305 | 35 | 348 | 0.0 | 1.0 | 0.00 | 0.00 | 0.00 | 76 | 1008.1 |
| 20260505211806 | 36 | 357 | 0.0 | 1.0 | 0.00 | 0.00 | 0.00 | 76 | 1008.1 |
| 20260505211306 | 36 | 357 | 0.0 | 1.0 | 0.00 | 0.00 | 0.00 | 75 | 1008.0 |
| 20260505210804 | 36 | 357 | 0.0 | 1.0 | 0.00 | 0.00 | 0.00 | 74 | 1008.0 |
| 20260505210312 | 36 | 357 | 0.0 | 1.0 | 0.00 | 0.00 | 0.00 | 74 | 1007.9 |
| 20260505205305 | 36 | 344 | 0.0 | 2.0 | 0.00 | 0.00 | 0.00 | 74 | 1007.8 |
| 20260505204805 | 36 | 252 | 0.0 | 2.0 | 0.00 | 0.00 | 0.00 | 73 | 1007.7 |
| 20260505204315 | 36 | 128 | 0.0 | 2.0 | 0.00 | 0.00 | 0.00 | 72 | 1007.6 |
| 20260505203812 | 37 | 193 | 0.0 | 1.0 | 0.00 | 0.00 | 0.00 | 72 | 1007.5 |
| 20260505203307 | 37 | 203 | 0.0 | 1.0 | 0.00 | 0.00 | 0.00 | 72 | 1007.5 |
| 20260505202805 | 37 | 203 | 0.0 | 0.0 | 0.00 | 0.00 | 0.00 | 71 | 1007.4 |
| 20260505202307 | 37 | 203 | 0.0 | 0.0 | 0.00 | 0.00 | 0.00 | 71 | 1007.4 |
| 20260505201304 | 38 | 203 | 0.0 | 0.0 | 0.00 | 0.00 | 0.00 | 70 | 1007.4 |
| 20260505200803 | 38 | 203 | 0.0 | 0.0 | 0.00 | 0.00 | 0.00 | 70 | 1007.3 |
| 20260505195802 | 38 | 203 | 0.0 | 0.0 | 0.00 | 0.00 | 0.00 | 68 | 1007.2 |
| 20260505195305 | 39 | 203 | 0.0 | 0.0 | 0.00 | 0.00 | 0.00 | 68 | 1007.2 |
| 20260505194805 | 39 | 200 | 0.0 | 0.0 | 0.00 | 0.00 | 0.00 | 68 | 1007.2 |
| 20260505194306 | 39 | 200 | 0.0 | 0.0 | 0.00 | 0.00 | 0.00 | 66 | 1007.1 |
| 20260505193803 | 39 | 200 | 0.0 | 0.0 | 0.00 | 0.00 | 0.00 | 66 | 1007.1 |
| 20260505193304 | 40 | 200 | 0.0 | 0.0 | 0.00 | 0.00 | 0.00 | 65 | 1007.2 |
| 20260505192801 | 40 | 200 | 0.0 | 1.0 | 0.00 | 0.00 | 0.00 | 65 | 1007.1 |
| 20260505192306 | 40 | 200 | 0.0 | 1.0 | 0.00 | 0.00 | 0.00 | 64 | 1007.2 |
| 20260505191804 | 41 | 190 | 0.0 | 1.0 | 0.00 | 0.00 | 0.00 | 64 | 1007.1 |
| 20260505191303 | 41 | 179 | 0.0 | 2.0 | 0.00 | 0.00 | 0.00 | 62 | 1007.0 |
| 20260505185805 | 42 | 23 | 0.0 | 3.0 | 0.00 | 0.00 | 0.00 | 60 | 1006.8 |
| 20260505185305 | 42 | 307 | 1.0 | 3.0 | 0.00 | 0.00 | 0.00 | 59 | 1006.8 |
| 20260505184801 | 42 | 279 | 1.0 | 2.0 | 0.00 | 0.00 | 0.00 | 60 | 1006.7 |
| 20260505184301 | 42 | 252 | 0.0 | 2.0 | 0.00 | 0.00 | 0.00 | 58 | 1006.8 |
| 20260505183807 | 42 | 123 | 1.0 | 2.0 | 0.00 | 0.00 | 0.00 | 57 | 1006.7 |
| 20260505182257 | 43 | 272 | 0.0 | 1.0 | 0.00 | 0.00 | 0.00 | 54 | 1006.4 |
| 20260505181757 | 43 | 337 | 0.0 | 3.0 | 0.00 | 0.00 | 0.00 | 53 | 1006.4 |
| 20260505181301 | 44 | 289 | 1.0 | 3.0 | 0.00 | 0.00 | 0.00 | 54 | 1006.3 |
| 20260505180759 | 44 | 276 | 1.0 | 2.0 | 0.00 | 0.00 | 0.00 | 51 | 1006.2 |
| 20260505180233 | 44 | 62 | 1.0 | 2.0 | 0.00 | 0.00 | 0.00 | 50 | 1006.2 |
| 20260505175733 | 45 | 261 | 1.0 | 2.0 | 0.00 | 0.00 | 0.00 | 50 | 1006.1 |
| 20260505175231 | 45 | 265 | 0.0 | 3.0 | 0.00 | 0.00 | 0.00 | 50 | 1006.2 |
| 20260505174734 | 45 | 290 | 1.0 | 4.0 | 0.00 | 0.00 | 0.00 | 49 | 1006.1 |
| 20260505174231 | 45 | 0 | 2.0 | 4.0 | 0.00 | 0.00 | 0.00 | 49 | 1006.1 |
| 20260505173729 | 46 | 323 | 1.0 | 3.0 | 0.00 | 0.00 | 0.00 | 46 | 1006.0 |
| 20260505173233 | 46 | 305 | 1.0 | 4.0 | 0.00 | 0.00 | 0.00 | 46 | 1005.9 |
| 20260505172229 | 46 | 279 | 2.0 | 5.0 | 0.00 | 0.00 | 0.00 | 45 | 1005.9 |
| 20260505171733 | 46 | 230 | 3.0 | 5.0 | 0.00 | 0.00 | 0.00 | 47 | 1005.8 |
| 20260505170705 | 47 | 309 | 0.0 | 4.0 | 0.00 | 0.00 | 0.00 | 44 | 1005.8 |
| 20260505170205 | 47 | 296 | 1.0 | 4.0 | 0.00 | 0.00 | 0.00 | 45 | 1005.7 |
| 20260505165706 | 47 | 279 | 1.0 | 4.0 | 0.00 | 0.00 | 0.00 | 45 | 1005.7 |
| 20260505165206 | 47 | 307 | 2.0 | 4.0 | 0.00 | 0.00 | 0.00 | 44 | 1005.7 |
| 20260505164703 | 47 | 135 | 1.0 | 6.0 | 0.00 | 0.00 | 0.00 | 43 | 1005.8 |
| 20260505164202 | 48 | 28 | 2.0 | 9.0 | 0.00 | 0.00 | 0.00 | 43 | 1005.8 |
| 20260505163659 | 48 | 1 | 2.0 | 9.0 | 0.00 | 0.00 | 0.00 | 42 | 1005.7 |
| 20260505162703 | 48 | 209 | 1.0 | 4.0 | 0.00 | 0.00 | 0.00 | 43 | 1005.7 |
| 20260505162202 | 48 | 85 | 2.0 | 4.0 | 0.00 | 0.00 | 0.00 | 44 | 1005.6 |
| 20260505161659 | 49 | 302 | 2.0 | 5.0 | 0.00 | 0.00 | 0.00 | 44 | 1005.6 |
| 20260505161204 | 49 | 333 | 3.0 | 5.0 | 0.00 | 0.00 | 0.00 | 43 | 1005.6 |
| 20260505160201 | 49 | 224 | 2.0 | 5.0 | 0.00 | 0.00 | 0.00 | 44 | 1005.6 |
| 20260505153201 | 50 | 243 | 2.0 | 6.0 | 0.00 | 0.00 | 0.00 | 41 | 1005.3 |
| 20260505152703 | 51 | 331 | 2.0 | 6.0 | 0.00 | 0.00 | 0.00 | 41 | 1005.3 |
| 20260505152202 | 51 | 247 | 2.0 | 5.0 | 0.00 | 0.00 | 0.00 | 39 | 1005.2 |
| 20260505151704 | 51 | 135 | 3.0 | 5.0 | 0.00 | 0.00 | 0.00 | 40 | 1005.2 |
| 20260505151206 | 51 | 128 | 2.0 | 4.0 | 0.00 | 0.00 | 0.00 | 40 | 1005.1 |
| 20260505150702 | 51 | 357 | 0.0 | 5.0 | 0.00 | 0.00 | 0.00 | 42 | 1005.1 |
| 20260505150209 | 51 | 313 | 2.0 | 5.0 | 0.00 | 0.00 | 0.00 | 40 | 1005.2 |
| 20260505140206 | 51 | 348 | 4.0 | 7.0 | 0.00 | 0.00 | 0.00 | 41 | 1004.8 |
| 20260505124209 | 53 | 240 | 2.0 | 6.0 | 0.00 | 0.00 | 0.00 | 40 | 1004.4 |
| 20260505123701 | 53 | 8 | 2.0 | 6.0 | 0.00 | 0.00 | 0.00 | 41 | 1004.4 |
| 20260505123204 | 53 | 268 | 2.0 | 5.0 | 0.00 | 0.00 | 0.00 | 42 | 1004.3 |
| 20260505122703 | 53 | 231 | 3.0 | 7.0 | 0.00 | 0.00 | 0.00 | 46 | 1004.2 |
| 20260505122206 | 52 | 316 | 1.0 | 7.0 | 0.00 | 0.00 | 0.00 | 48 | 1004.3 |
| 20260505121703 | 52 | 341 | 2.0 | 6.0 | 0.00 | 0.00 | 0.00 | 51 | 1004.4 |
| 20260505121206 | 51 | 142 | 2.0 | 6.0 | 0.00 | 0.00 | 0.00 | 50 | 1004.3 |
| 20260505120705 | 51 | 0 | 1.0 | 7.0 | 0.00 | 0.00 | 0.00 | 50 | 1004.3 |
| 20260505115704 | 51 | 305 | 2.0 | 9.0 | 0.00 | 0.00 | 0.00 | 50 | 1004.3 |
| 20260505115206 | 52 | 334 | 3.0 | 6.0 | 0.00 | 0.00 | 0.00 | 50 | 1004.1 |
| 20260505114701 | 52 | 307 | 2.0 | 7.0 | 0.00 | 0.00 | 0.00 | 51 | 1004.1 |
| 20260505114206 | 51 | 42 | 1.0 | 7.0 | 0.00 | 0.01 | 0.00 | 54 | 1004.1 |
| 20260505113703 | 50 | 0 | 4.0 | 11.0 | 0.00 | 0.01 | 0.00 | 52 | 1004.0 |
| 20260505112700 | 53 | 32 | 4.0 | 7.0 | 0.00 | 0.01 | 0.00 | 49 | 1004.0 |
| 20260505112202 | 53 | 321 | 3.0 | 5.0 | 0.00 | 0.01 | 0.00 | 46 | 1003.7 |
| 20260505110206 | 51 | 264 | 2.0 | 9.0 | 0.00 | 0.02 | 0.00 | 51 | 1003.7 |
| 20260505102203 | 52 | 0 | 2.0 | 7.0 | 0.00 | 0.06 | 0.00 | 50 | 1003.1 |
| 20260505101701 | 52 | 314 | 3.0 | 6.0 | 0.00 | 0.06 | 0.00 | 53 | 1003.1 |
| 20260505101205 | 52 | 323 | 3.0 | 7.0 | 0.00 | 0.06 | 0.00 | 53 | 1003.0 |
| 20260505100700 | 54 | 312 | 2.0 | 7.0 | 0.00 | 0.06 | 0.00 | 48 | 1002.9 |
| 20260505100205 | 54 | 230 | 2.0 | 10.0 | 0.00 | 0.07 | 0.00 | 48 | 1002.8 |
| 20260505095700 | 53 | 314 | 3.0 | 10.0 | 0.00 | 0.07 | 0.00 | 49 | 1002.9 |
| 20260505095205 | 54 | 292 | 4.0 | 6.0 | 0.00 | 0.07 | 0.00 | 51 | 1002.6 |
| 20260505094703 | 53 | 149 | 2.0 | 6.0 | 0.00 | 0.08 | 0.00 | 53 | 1002.6 |
| 20260505094203 | 54 | 302 | 2.0 | 6.0 | 0.00 | 0.08 | 0.00 | 51 | 1002.4 |
| 20260505093704 | 54 | 238 | 2.0 | 12.0 | 0.00 | 0.09 | 0.00 | 53 | 1002.4 |
| 20260505093206 | 52 | 357 | 3.0 | 12.0 | 0.00 | 0.09 | 0.00 | 52 | 1002.4 |
| 20260505092204 | 55 | 300 | 5.0 | 9.0 | 0.00 | 0.09 | 0.00 | 49 | 1002.1 |
| 20260505091704 | 54 | 307 | 3.0 | 9.0 | 0.00 | 0.09 | 0.00 | 50 | 1002.0 |
| 20260505091205 | 54 | 283 | 5.0 | 7.0 | 0.00 | 0.10 | 0.00 | 51 | 1002.1 |
| 20260505090703 | 55 | 320 | 3.0 | 7.0 | 0.00 | 0.10 | 0.00 | 51 | 1002.0 |
| 20260505090205 | 55 | 336 | 3.0 | 10.0 | 0.00 | 0.10 | 0.00 | 52 | 1001.9 |
| 20260505085703 | 54 | 313 | 2.0 | 10.0 | 0.00 | 0.10 | 0.00 | 55 | 1001.8 |
| 20260505085205 | 53 | 348 | 4.0 | 7.0 | 0.00 | 0.10 | 0.00 | 58 | 1001.6 |
| 20260505084700 | 52 | 331 | 2.0 | 13.0 | 0.00 | 0.10 | 0.00 | 60 | 1001.6 |
| 20260505084206 | 53 | 299 | 5.0 | 13.0 | 0.00 | 0.10 | 0.00 | 59 | 1001.5 |
| 20260505083704 | 54 | 302 | 4.0 | 11.0 | 0.00 | 0.10 | 0.00 | 56 | 1001.4 |
| 20260505083202 | 55 | 1 | 4.0 | 11.0 | 0.00 | 0.10 | 0.00 | 53 | 1001.2 |
| 20260505082204 | 55 | 293 | 2.0 | 5.0 | 0.00 | 0.10 | 0.00 | 55 | 1001.2 |
| 20260505081203 | 54 | 293 | 2.0 | 10.0 | 0.00 | 0.10 | 0.00 | 55 | 1001.2 |
| 20260505080145 | 55 | 309 | 4.0 | 6.0 | 0.00 | 0.10 | 0.00 | 56 | 1001.1 |
| 20260505075633 | 54 | 279 | 3.0 | 7.0 | 0.00 | 0.10 | 0.00 | 56 | 1000.9 |
| 20260505075134 | 53 | 186 | 4.0 | 7.0 | 0.00 | 0.10 | 0.00 | 57 | 1001.0 |
| 20260505074633 | 53 | 261 | 4.0 | 7.0 | 0.00 | 0.10 | 0.00 | 55 | 1000.9 |